Location: Irma
(52.9170°N, 111.2330°W)
Time: 09:09:41
(UTC-06:00)

Cosmos 1633 Rocket - Visible Passes

Search period start: 30 July 2014 00:00
Search period end: 09 August 2014 00:00
Orbit: 610 x 625 km, 82.5° (Epoch: 29 July)

Date Brightness Start Highest point End Pass type
(mag) Time Alt. Az. Time Alt. Az. Time Alt. Az.
30 Jul 5.7 01:44:20 10° NNE 01:46:55 15° ENE 01:49:29 10° E visible
30 Jul 3.0 03:20:58 10° NNW 03:25:26 87° W 03:28:51 17° S visible
31 Jul 5.1 02:00:35 10° NNE 02:04:07 23° ENE 02:07:38 10° ESE visible
31 Jul 3.3 03:37:57 10° NNW 03:42:16 52° W 03:45:12 19° SSW visible
01 Aug 4.4 02:17:07 10° N 02:21:13 35° ENE 02:24:29 15° SE visible
01 Aug 4.0 03:55:05 10° NNW 03:59:01 31° W 04:01:34 18° SW visible
02 Aug 3.6 02:33:50 10° N 02:38:14 57° ENE 02:40:53 23° SSE visible
02 Aug 4.7 04:12:28 10° NW 04:15:40 20° W 04:17:59 14° WSW visible
03 Aug 5.6 01:14:03 10° NNE 01:16:38 15° ENE 01:19:12 10° E visible
03 Aug 3.0 02:50:41 10° NNW 02:55:09 87° W 02:57:18 30° S visible
03 Aug 5.2 04:30:28 10° NW 04:32:14 12° W 04:34:00 10° WSW visible
04 Aug 5.0 01:30:17 10° NNE 01:33:50 23° ENE 01:36:40 13° ESE visible
04 Aug 3.3 03:07:40 10° NNW 03:11:59 52° W 03:13:45 31° SSW visible
05 Aug 4.3 01:46:50 10° N 01:50:56 35° ENE 01:53:08 22° ESE visible
05 Aug 4.1 03:24:48 10° NNW 03:28:43 31° W 03:30:14 25° SW visible
06 Aug 3.5 02:03:33 10° N 02:07:56 57° ENE 02:09:37 34° SE visible
06 Aug 4.7 03:42:11 10° NW 03:45:22 20° W 03:46:43 17° WSW visible
07 Aug 5.5 00:43:45 10° NNE 00:46:20 15° ENE 00:48:54 10° E visible
07 Aug 3.0 02:20:23 10° NNW 02:24:51 86° W 02:26:07 47° S visible
07 Aug 5.2 04:00:12 10° WNW 04:01:56 12° W 04:03:13 11° W visible
08 Aug 4.9 00:59:59 10° NNE 01:03:32 23° ENE 01:05:33 17° ESE visible
08 Aug 3.4 02:37:22 10° NNW 02:41:40 51° W 02:42:39 42° SW visible
